Tracking 29493 objects as of 8-Sep-2024
HD Live streaming from Space Station
objects crossing your sky now

STARLINK-4143

Track STARLINK-4143 now!
10-day predictions
STARLINK-4143 is classified as:


NORAD ID: 53029
Int'l Code: 2022-076AV
Perigee: 545.9 km
Apogee: 547.8 km
Inclination: 53.2 °
Period: 95.4 minutes
Semi major axis: 6917 km
RCS: Unknown
Launch date: July 7, 2022
Source: United States (US)
Launch site: AIR FORCE EASTERN TEST RANGE (AFETR)
Your satellite tracking list
Your tracking list is empty




NASA's NSSDC Master Catalog

Two Line Element Set (TLE):
1 53029U 22076AV  24252.62182830  .00005927  00000-0  38999-3 0  9995
2 53029  53.2178  10.0060 0001332  91.7790 268.3355 15.08854687120531
Source of the keplerian elements: AFSPC